Alexandria, Egypt

9:50 PM EET on November 23, 2017 (GMT +0200)
Alexandria

Weather History for HEAX - January, 2013

Change the Weather History Date:

Monday, January 28, 2013

  Actual Average Record
Temperature  
Mean Temperature 54 °F -  
Max Temperature 63 °F 63 °F 80 °F (2005)
Min Temperature 45 °F 48 °F 41 °F (1999)
Degree Days  
Heating Degree Days 11    
Growing Degree Days 4 (Base 50)    
Moisture  
Dew Point 47 °F    
Average Humidity 81    
Maximum Humidity 94    
Minimum Humidity 51    
Precipitation  
Precipitation 0.08 in 0.04 in - ()
Sea Level Pressure  
Sea Level Pressure 29.94 in    
Wind  
Wind Speed 5 mph ()    
Max Wind Speed 21 mph    
Max Gust Speed -    
Visibility 6.0 miles    
Events      
Averages and records for this station are not official NWS values.
T = Trace of Precipitation, MM = Missing Value Source: Averaged Metar Reports

Daily Weather History Graph

Daily Weather History Graph

Search for Another Location

Airport or City:

Trip Planner

Search our weather history database for the weather conditions in past years. The results will help you decide how hot, cold, wet, or windy it might be!

Date:

Astronomy

Jan. 28, 2013 Rise Set
Actual Time 6:54 AM EET 5:31 PM EET
Civil Twilight 6:29 AM EET 5:57 PM EET
Nautical Twilight 6:00 AM EET 6:26 PM EET
Astronomical Twilight 5:31 AM EET 6:55 PM EET
Moon 6:56 PM EET (1/28) 7:17 AM EET (1/28)
Length of Visible Light 11h 28m
Length of Day
10h 37m
Full, 98% of the Moon is Illuminated
Jan 28
Full
Feb 3
Last Quarter
Feb 10
New
Feb 17
First Quarter
Feb 25
Full

Hourly Weather History & Observations

Time (EET) Temp. Windchill Dew Point Humidity Pressure Visibility Wind Dir Wind Speed Gust Speed Precip Events Conditions
12:00 AM 51.8 °F - 50.0 °F 94% 29.98 in - SSW 3.5 mph - N/A   Clear
1:00 AM 50.0 °F - 46.4 °F 87% 29.95 in - SSE 3.5 mph - N/A   Clear
2:00 AM 49 °F - 47 °F 88% 29.96 in 6 mi South 3.5 mph - -  
2:00 AM 48.2 °F - 46.4 °F 93% 29.95 in - South 3.5 mph - N/A   Clear
3:00 AM 48.2 °F - 46.4 °F 93% 29.95 in - SSE 3.5 mph - N/A   Clear
4:00 AM 48.2 °F - 46.4 °F 93% 29.95 in - SSE 3.5 mph - N/A   Clear
5:00 AM 46.4 °F 45.2 °F 42.8 °F 87% 29.92 in - SSE 3.5 mph - N/A   Clear
6:00 AM 44.6 °F 43.1 °F 42.8 °F 93% 29.92 in - South 3.5 mph - N/A   Clear
7:00 AM 46.4 °F - 44.6 °F 93% 29.95 in - Calm Calm - N/A   Clear
8:00 AM 48 °F - 44 °F 80% 29.93 in 6 mi SE 4.6 mph - -  
8:00 AM 48.2 °F - 44.6 °F 87% 29.92 in - SE 4.6 mph - N/A   Clear
9:00 AM 53.6 °F - 48.2 °F 82% 29.92 in 6.2 mi South 5.8 mph - N/A   Partly Cloudy
10:00 AM 62.6 °F - 50.0 °F 63% 29.92 in 6.2 mi SW 4.6 mph - N/A   Mostly Cloudy
11:00 AM 62.6 °F - 50.0 °F 63% 29.92 in 6.2 mi WSW 8.1 mph - N/A   Mostly Cloudy
12:00 PM 62.6 °F - 50.0 °F 63% 29.92 in 6.2 mi West 9.2 mph - N/A   Mostly Cloudy
1:00 PM 59.0 °F - 50.0 °F 72% 29.89 in 3.7 mi SW 16.1 mph - N/A   Mostly Cloudy
2:00 PM 55 °F - 42 °F 51% 29.93 in 6 mi West 20.7 mph - -   Mostly Cloudy
2:00 PM 55.4 °F - 42.8 °F 63% 29.92 in 6.2 mi West 20.7 mph - N/A   Scattered Clouds
3:00 PM 53.6 °F - 46.4 °F 77% 29.92 in 6.2 mi SW 10.4 mph - N/A   Mostly Cloudy
4:00 PM 53.6 °F - 46.4 °F 77% 29.92 in 6.2 mi SW 5.8 mph - N/A   Mostly Cloudy
5:00 PM 53.6 °F - 46.4 °F 77% 29.92 in 6.2 mi SW 8.1 mph - N/A   Mostly Cloudy
6:00 PM 53.6 °F - 46.4 °F 77% 29.95 in - West 6.9 mph - N/A   Clear
7:00 PM 51.8 °F - 46.4 °F 82% 29.98 in 6.2 mi South 4.6 mph - N/A   Scattered Clouds
8:00 PM 53 °F - 47 °F 75% 29.98 in 6 mi South 4.6 mph - -   Partly Cloudy
8:00 PM 51.8 °F - 48.2 °F 88% 29.98 in 6.2 mi South 4.6 mph - N/A   Scattered Clouds
9:00 PM 51.8 °F - 48.2 °F 88% 29.98 in 6.2 mi South 2.3 mph - N/A   Scattered Clouds
10:00 PM 51.8 °F - 48.2 °F 88% 29.98 in 6.2 mi South 3.5 mph - N/A   Scattered Clouds
11:00 PM 50.0 °F - 48.2 °F 94% 29.98 in 6.2 mi South 4.6 mph - N/A   Scattered Clouds